owner,sensor,date,latitude,longitude,vertical_datum,wind_speed,wind_to_direction,wind_speed_of_gust,qcFlag 
DISL,ioos:station:DISL:BSCA:1,2017-06-01T00:00:00Z,30.3288,-87.8293,0.0,3.33,186.4,-999.0,'1111122,1111122,1111122' 
DISL,ioos:station:DISL:BSCA:1,2017-06-01T00:30:00Z,30.3288,-87.8293,0.0,5.02,176.1,-999.0,'1111122,1111122,1111122' 
DISL,ioos:station:DISL:BSCA:1,2017-06-01T01:00:00Z,30.3288,-87.8293,0.0,5.19,187.7,-999.0,'1111122,1111122,1111122' 
DISL,ioos:station:DISL:BSCA:1,2017-06-01T01:30:00Z,30.3288,-87.8293,0.0,4.48,179.2,-999.0,'1111122,1111122,1111122' 
DISL,ioos:station:DISL:BSCA:1,2017-06-01T02:00:00Z,30.3288,-87.8293,0.0,3.85,209.1,-999.0,'1111122,1111122,1111122' 
DISL,ioos:station:DISL:BSCA:1,2017-06-01T02:30:00Z,30.3288,-87.8293,0.0,3.77,226.5,-999.0,'1111122,1111122,1111122' 
DISL,ioos:station:DISL:BSCA:1,2017-06-01T03:00:00Z,30.3288,-87.8293,0.0,2.68,234.9,-999.0,'1111122,1111122,1111122' 
DISL,ioos:station:DISL:BSCA:1,2017-06-01T03:30:00Z,30.3288,-87.8293,0.0,1.55,257.6,-999.0,'1111122,1111122,1111122' 
DISL,ioos:station:DISL:BSCA:1,2017-06-01T04:00:00Z,30.3288,-87.8293,0.0,1.33,279.1,-999.0,'1111122,1111122,1111122' 
DISL,ioos:station:DISL:BSCA:1,2017-06-01T04:30:00Z,30.3288,-87.8293,0.0,1.76,56.71,-999.0,'1111122,1111122,1111122' 
DISL,ioos:station:DISL:BSCA:1,2017-06-01T05:00:00Z,30.3288,-87.8293,0.0,3.71,73.6,-999.0,'1111122,1111122,1111122' 
DISL,ioos:station:DISL:BSCA:1,2017-06-01T05:30:00Z,30.3288,-87.8293,0.0,4.55,81.3,-999.0,'1111122,1111122,1111122' 
DISL,ioos:station:DISL:BSCA:1,2017-06-01T06:00:00Z,30.3288,-87.8293,0.0,3.42,74.29,-999.0,'1111122,1111122,1111122' 
DISL,ioos:station:DISL:BSCA:1,2017-06-01T06:30:00Z,30.3288,-87.8293,0.0,3.26,81.8,-999.0,'1111122,1111122,1111122' 
DISL,ioos:station:DISL:BSCA:1,2017-06-01T07:00:00Z,30.3288,-87.8293,0.0,3.25,90.7,-999.0,'1111122,1111122,1111122' 
DISL,ioos:station:DISL:BSCA:1,2017-06-01T07:30:00Z,30.3288,-87.8293,0.0,2.98,60.85,-999.0,'1111122,1111122,1111122' 
DISL,ioos:station:DISL:BSCA:1,2017-06-01T08:00:00Z,30.3288,-87.8293,0.0,2.42,58.3,-999.0,'1111122,1111122,1111122' 
DISL,ioos:station:DISL:BSCA:1,2017-06-01T08:30:00Z,30.3288,-87.8293,0.0,3.35,68.12,-999.0,'1111122,1111122,1111122' 
DISL,ioos:station:DISL:BSCA:1,2017-06-01T09:00:00Z,30.3288,-87.8293,0.0,3.47,70.65,-999.0,'1111122,1111122,1111122' 
DISL,ioos:station:DISL:BSCA:1,2017-06-01T09:30:00Z,30.3288,-87.8293,0.0,3.26,89.7,-999.0,'1111122,1111122,1111122' 
DISL,ioos:station:DISL:BSCA:1,2017-06-01T10:00:00Z,30.3288,-87.8293,0.0,2.74,69.6,-999.0,'1111122,1111122,1111122' 
DISL,ioos:station:DISL:BSCA:1,2017-06-01T10:30:00Z,30.3288,-87.8293,0.0,3.24,88.6,-999.0,'1111122,1111122,1111122' 
DISL,ioos:station:DISL:BSCA:1,2017-06-01T11:00:00Z,30.3288,-87.8293,0.0,2.93,74.41,-999.0,'1111122,1111122,1111122' 
DISL,ioos:station:DISL:BSCA:1,2017-06-01T11:30:00Z,30.3288,-87.8293,0.0,2.86,78.3,-999.0,'1111122,1111122,1111122' 
DISL,ioos:station:DISL:BSCA:1,2017-06-01T12:00:00Z,30.3288,-87.8293,0.0,3.96,80.5,-999.0,'1111122,1111122,1111122' 
DISL,ioos:station:DISL:BSCA:1,2017-06-01T12:30:00Z,30.3288,-87.8293,0.0,2.65,76.36,-999.0,'1111122,1111122,1111122' 
DISL,ioos:station:DISL:BSCA:1,2017-06-01T13:00:00Z,30.3288,-87.8293,0.0,2.41,90.9,-999.0,'1111122,1111122,1111122' 
DISL,ioos:station:DISL:BSCA:1,2017-06-01T13:30:00Z,30.3288,-87.8293,0.0,3.07,87.4,-999.0,'1111122,1111122,1111122' 
DISL,ioos:station:DISL:BSCA:1,2017-06-01T14:00:00Z,30.3288,-87.8293,0.0,2.84,76.94,-999.0,'1111122,1111122,1111122' 
DISL,ioos:station:DISL:BSCA:1,2017-06-01T14:30:00Z,30.3288,-87.8293,0.0,2.99,117.6,-999.0,'1111122,1111122,1111122' 
DISL,ioos:station:DISL:BSCA:1,2017-06-01T15:00:00Z,30.3288,-87.8293,0.0,5.15,121.6,-999.0,'1111122,1111122,1111122' 
DISL,ioos:station:DISL:BSCA:1,2017-06-01T15:30:00Z,30.3288,-87.8293,0.0,5.59,129.4,-999.0,'1111122,1111122,1111122' 
DISL,ioos:station:DISL:BSCA:1,2017-06-01T16:00:00Z,30.3288,-87.8293,0.0,3.34,149.0,-999.0,'1111122,1111122,1111122' 
DISL,ioos:station:DISL:BSCA:1,2017-06-01T16:30:00Z,30.3288,-87.8293,0.0,0.95,151.2,-999.0,'1111122,1111122,1111122' 
DISL,ioos:station:DISL:BSCA:1,2017-06-01T17:00:00Z,30.3288,-87.8293,0.0,0.42,306.8,-999.0,'1111122,1111122,1111122' 
DISL,ioos:station:DISL:BSCA:1,2017-06-01T17:30:00Z,30.3288,-87.8293,0.0,1.58,321.4,-999.0,'1111122,1111122,1111122' 
DISL,ioos:station:DISL:BSCA:1,2017-06-01T18:00:00Z,30.3288,-87.8293,0.0,2.39,348.2,-999.0,'1111122,1111122,1111122' 
DISL,ioos:station:DISL:BSCA:1,2017-06-01T18:30:00Z,30.3288,-87.8293,0.0,1.5,322.2,-999.0,'1111122,1111122,1111122' 
DISL,ioos:station:DISL:BSCA:1,2017-06-01T19:00:00Z,30.3288,-87.8293,0.0,1.8,337.0,-999.0,'1111122,1111122,1111122' 
DISL,ioos:station:DISL:BSCA:1,2017-06-01T19:30:00Z,30.3288,-87.8293,0.0,0.47,294.9,-999.0,'1111122,1111122,1111122' 
DISL,ioos:station:DISL:BSCA:1,2017-06-01T20:00:00Z,30.3288,-87.8293,0.0,1.86,163.5,-999.0,'1111122,1111122,1111122' 
DISL,ioos:station:DISL:BSCA:1,2017-06-01T20:30:00Z,30.3288,-87.8293,0.0,1.75,147.8,-999.0,'1111122,1111122,1111122' 
DISL,ioos:station:DISL:BSCA:1,2017-06-01T21:00:00Z,30.3288,-87.8293,0.0,2.03,152.1,-999.0,'1111122,1111122,1111122' 
DISL,ioos:station:DISL:BSCA:1,2017-06-01T21:30:00Z,30.3288,-87.8293,0.0,2.65,151.0,-999.0,'1111122,1111122,1111122' 
DISL,ioos:station:DISL:BSCA:1,2017-06-01T22:00:00Z,30.3288,-87.8293,0.0,3.66,156.0,-999.0,'1111122,1111122,1111122' 
DISL,ioos:station:DISL:BSCA:1,2017-06-01T22:30:00Z,30.3288,-87.8293,0.0,4.78,148.7,-999.0,'1111122,1111122,1111122' 
DISL,ioos:station:DISL:BSCA:1,2017-06-01T23:00:00Z,30.3288,-87.8293,0.0,4.04,143.8,-999.0,'1111122,1111122,1111122' 
DISL,ioos:station:DISL:BSCA:1,2017-06-01T23:30:00Z,30.3288,-87.8293,0.0,4.07,142.2,-999.0,'1111122,1111122,1111122' 
DISL,ioos:station:DISL:BSCA:1,2017-06-02T00:00:00Z,30.3288,-87.8293,0.0,3.92,132.4,-999.0,'1111122,1111122,1111122' 
DISL,ioos:station:DISL:BSCA:1,2017-06-02T00:30:00Z,30.3288,-87.8293,0.0,4.3,142.6,-999.0,'1111122,1111122,1111122' 
DISL,ioos:station:DISL:BSCA:1,2017-06-02T01:00:00Z,30.3288,-87.8293,0.0,3.44,130.1,-999.0,'1111122,1111122,1111122' 
DISL,ioos:station:DISL:BSCA:1,2017-06-02T01:30:00Z,30.3288,-87.8293,0.0,5.92,196.3,-999.0,'1111122,1111122,1111122' 
DISL,ioos:station:DISL:BSCA:1,2017-06-02T02:00:00Z,30.3288,-87.8293,0.0,3.37,206.2,-999.0,'1111122,1111122,1111122' 
DISL,ioos:station:DISL:BSCA:1,2017-06-02T02:30:00Z,30.3288,-87.8293,0.0,1.42,33.51,-999.0,'1111122,1111122,1111122' 
DISL,ioos:station:DISL:BSCA:1,2017-06-02T03:00:00Z,30.3288,-87.8293,0.0,1.92,53.48,-999.0,'1111122,1111122,1111122' 
DISL,ioos:station:DISL:BSCA:1,2017-06-02T03:30:00Z,30.3288,-87.8293,0.0,3.47,53.68,-999.0,'1111122,1111122,1111122' 
DISL,ioos:station:DISL:BSCA:1,2017-06-02T04:00:00Z,30.3288,-87.8293,0.0,2.93,59.38,-999.0,'1111122,1111122,1111122' 
DISL,ioos:station:DISL:BSCA:1,2017-06-02T04:30:00Z,30.3288,-87.8293,0.0,1.7,91.3,-999.0,'1111122,1111122,1111122' 
DISL,ioos:station:DISL:BSCA:1,2017-06-02T05:00:00Z,30.3288,-87.8293,0.0,2.5,112.6,-999.0,'1111122,1111122,1111122' 
DISL,ioos:station:DISL:BSCA:1,2017-06-02T05:30:00Z,30.3288,-87.8293,0.0,3.25,139.6,-999.0,'1111122,1111122,1111122' 
DISL,ioos:station:DISL:BSCA:1,2017-06-02T06:00:00Z,30.3288,-87.8293,0.0,2.89,131.3,-999.0,'1111122,1111122,1111122' 
DISL,ioos:station:DISL:BSCA:1,2017-06-02T06:30:00Z,30.3288,-87.8293,0.0,2.27,130.6,-999.0,'1111122,1111122,1111122' 
DISL,ioos:station:DISL:BSCA:1,2017-06-02T07:00:00Z,30.3288,-87.8293,0.0,1.56,135.8,-999.0,'1111122,1111122,1111122' 
DISL,ioos:station:DISL:BSCA:1,2017-06-02T07:30:00Z,30.3288,-87.8293,0.0,1.33,111.7,-999.0,'1111122,1111122,1111122' 
DISL,ioos:station:DISL:BSCA:1,2017-06-02T08:00:00Z,30.3288,-87.8293,0.0,1.97,101.2,-999.0,'1111122,1111122,1111122' 
DISL,ioos:station:DISL:BSCA:1,2017-06-02T08:30:00Z,30.3288,-87.8293,0.0,2.05,114.6,-999.0,'1111122,1111122,1111122' 
DISL,ioos:station:DISL:BSCA:1,2017-06-02T09:00:00Z,30.3288,-87.8293,0.0,1.79,84.1,-999.0,'1111122,1111122,1111122' 
DISL,ioos:station:DISL:BSCA:1,2017-06-02T09:30:00Z,30.3288,-87.8293,0.0,2.76,92.3,-999.0,'1111122,1111122,1111122' 
DISL,ioos:station:DISL:BSCA:1,2017-06-02T10:00:00Z,30.3288,-87.8293,0.0,2.53,81.1,-999.0,'1111122,1111122,1111122' 
DISL,ioos:station:DISL:BSCA:1,2017-06-02T10:30:00Z,30.3288,-87.8293,0.0,2.37,110.3,-999.0,'1111122,1111122,1111122' 
DISL,ioos:station:DISL:BSCA:1,2017-06-02T11:00:00Z,30.3288,-87.8293,0.0,2.59,116.8,-999.0,'1111122,1111122,1111122' 
DISL,ioos:station:DISL:BSCA:1,2017-06-02T11:30:00Z,30.3288,-87.8293,0.0,1.57,112.5,-999.0,'1111122,1111122,1111122' 
DISL,ioos:station:DISL:BSCA:1,2017-06-02T12:00:00Z,30.3288,-87.8293,0.0,2.11,82.7,-999.0,'1111122,1111122,1111122' 
DISL,ioos:station:DISL:BSCA:1,2017-06-02T12:30:00Z,30.3288,-87.8293,0.0,3.01,76.38,-999.0,'1111122,1111122,1111122' 
DISL,ioos:station:DISL:BSCA:1,2017-06-02T13:00:00Z,30.3288,-87.8293,0.0,3.05,81.7,-999.0,'1111122,1111122,1111122' 
DISL,ioos:station:DISL:BSCA:1,2017-06-02T13:30:00Z,30.3288,-87.8293,0.0,2.94,72.87,-999.0,'1111122,1111122,1111122' 
DISL,ioos:station:DISL:BSCA:1,2017-06-02T14:00:00Z,30.3288,-87.8293,0.0,2.78,90.4,-999.0,'1111122,1111122,1111122' 
DISL,ioos:station:DISL:BSCA:1,2017-06-02T14:30:00Z,30.3288,-87.8293,0.0,2.31,125.0,-999.0,'1111122,1111122,1111122' 
DISL,ioos:station:DISL:BSCA:1,2017-06-02T15:00:00Z,30.3288,-87.8293,0.0,1.97,142.6,-999.0,'1111122,1111122,1111122' 
DISL,ioos:station:DISL:BSCA:1,2017-06-02T15:30:00Z,30.3288,-87.8293,0.0,3.11,160.5,-999.0,'1111122,1111122,1111122' 
DISL,ioos:station:DISL:BSCA:1,2017-06-02T16:00:00Z,30.3288,-87.8293,0.0,4.24,167.5,-999.0,'1111122,1111122,1111122' 
DISL,ioos:station:DISL:BSCA:1,2017-06-02T16:30:00Z,30.3288,-87.8293,0.0,4.85,163.8,-999.0,'1111122,1111122,1111122' 
DISL,ioos:station:DISL:BSCA:1,2017-06-02T17:00:00Z,30.3288,-87.8293,0.0,4.94,164.7,-999.0,'1111122,1111122,1111122' 
DISL,ioos:station:DISL:BSCA:1,2017-06-02T17:30:00Z,30.3288,-87.8293,0.0,5.36,180.6,-999.0,'1111122,1111122,1111122' 
DISL,ioos:station:DISL:BSCA:1,2017-06-02T18:00:00Z,30.3288,-87.8293,0.0,6.92,206.3,-999.0,'1111122,1111122,1111122' 
DISL,ioos:station:DISL:BSCA:1,2017-06-02T18:30:00Z,30.3288,-87.8293,0.0,6.3,194.8,-999.0,'1111122,1111122,1111122' 
DISL,ioos:station:DISL:BSCA:1,2017-06-02T19:00:00Z,30.3288,-87.8293,0.0,5.54,189.8,-999.0,'1111122,1111122,1111122' 
DISL,ioos:station:DISL:BSCA:1,2017-06-02T19:30:00Z,30.3288,-87.8293,0.0,6.07,183.1,-999.0,'1111122,1111122,1111122' 
DISL,ioos:station:DISL:BSCA:1,2017-06-02T20:00:00Z,30.3288,-87.8293,0.0,4.85,159.3,-999.0,'1111122,1111122,1111122' 
DISL,ioos:station:DISL:BSCA:1,2017-06-02T20:30:00Z,30.3288,-87.8293,0.0,6.2,167.4,-999.0,'1111122,1111122,1111122' 
DISL,ioos:station:DISL:BSCA:1,2017-06-02T21:00:00Z,30.3288,-87.8293,0.0,6.53,165.6,-999.0,'1111122,1111122,1111122' 
DISL,ioos:station:DISL:BSCA:1,2017-06-02T21:30:00Z,30.3288,-87.8293,0.0,7.02,159.9,-999.0,'1111122,1111122,1111122' 
DISL,ioos:station:DISL:BSCA:1,2017-06-02T22:00:00Z,30.3288,-87.8293,0.0,5.9,177.4,-999.0,'1111122,1111122,1111122' 
DISL,ioos:station:DISL:BSCA:1,2017-06-02T22:30:00Z,30.3288,-87.8293,0.0,5.86,179.9,-999.0,'1111122,1111122,1111122' 
DISL,ioos:station:DISL:BSCA:1,2017-06-02T23:00:00Z,30.3288,-87.8293,0.0,4.82,175.4,-999.0,'1111122,1111122,1111122' 
DISL,ioos:station:DISL:BSCA:1,2017-06-02T23:30:00Z,30.3288,-87.8293,0.0,4.03,172.9,-999.0,'1111122,1111122,1111122' 
DISL,ioos:station:DISL:BSCA:1,2017-06-03T00:00:00Z,30.3288,-87.8293,0.0,4.55,169.0,-999.0,'1111122,1111122,1111122' 
DISL,ioos:station:DISL:BSCA:1,2017-06-03T00:30:00Z,30.3288,-87.8293,0.0,5.12,169.6,-999.0,'1111122,1111122,1111122' 
DISL,ioos:station:DISL:BSCA:1,2017-06-03T01:00:00Z,30.3288,-87.8293,0.0,4.41,182.1,-999.0,'1111122,1111122,1111122' 
DISL,ioos:station:DISL:BSCA:1,2017-06-03T01:30:00Z,30.3288,-87.8293,0.0,3.19,172.2,-999.0,'1111122,1111122,1111122' 
DISL,ioos:station:DISL:BSCA:1,2017-06-03T02:00:00Z,30.3288,-87.8293,0.0,2.85,154.6,-999.0,'1111122,1111122,1111122' 
DISL,ioos:station:DISL:BSCA:1,2017-06-03T02:30:00Z,30.3288,-87.8293,0.0,3.6,166.8,-999.0,'1111122,1111122,1111122' 
DISL,ioos:station:DISL:BSCA:1,2017-06-03T03:00:00Z,30.3288,-87.8293,0.0,4.43,175.2,-999.0,'1111122,1111122,1111122' 
DISL,ioos:station:DISL:BSCA:1,2017-06-03T03:30:00Z,30.3288,-87.8293,0.0,3.95,184.1,-999.0,'1111122,1111122,1111122' 
DISL,ioos:station:DISL:BSCA:1,2017-06-03T04:00:00Z,30.3288,-87.8293,0.0,4.94,190.6,-999.0,'1111122,1111122,1111122' 
DISL,ioos:station:DISL:BSCA:1,2017-06-03T04:30:00Z,30.3288,-87.8293,0.0,5.35,158.1,-999.0,'1111122,1111122,1111122' 
DISL,ioos:station:DISL:BSCA:1,2017-06-03T05:00:00Z,30.3288,-87.8293,0.0,5.39,130.1,-999.0,'1111122,1111122,1111122' 
DISL,ioos:station:DISL:BSCA:1,2017-06-03T05:30:00Z,30.3288,-87.8293,0.0,5.75,118.6,-999.0,'1111122,1111122,1111122' 
DISL,ioos:station:DISL:BSCA:1,2017-06-03T06:00:00Z,30.3288,-87.8293,0.0,5.54,127.5,-999.0,'1111122,1111122,1111122' 
DISL,ioos:station:DISL:BSCA:1,2017-06-03T06:30:00Z,30.3288,-87.8293,0.0,4.7,124.1,-999.0,'1111122,1111122,1111122' 
DISL,ioos:station:DISL:BSCA:1,2017-06-03T07:00:00Z,30.3288,-87.8293,0.0,4.83,129.0,-999.0,'1111122,1111122,1111122' 
DISL,ioos:station:DISL:BSCA:1,2017-06-03T07:30:00Z,30.3288,-87.8293,0.0,5.6,146.4,-999.0,'1111122,1111122,1111122' 
DISL,ioos:station:DISL:BSCA:1,2017-06-03T08:00:00Z,30.3288,-87.8293,0.0,4.95,126.9,-999.0,'1111122,1111122,1111122' 
DISL,ioos:station:DISL:BSCA:1,2017-06-03T08:30:00Z,30.3288,-87.8293,0.0,4.81,139.5,-999.0,'1111122,1111122,1111122' 
DISL,ioos:station:DISL:BSCA:1,2017-06-03T09:00:00Z,30.3288,-87.8293,0.0,4.7,154.9,-999.0,'1111122,1111122,1111122' 
DISL,ioos:station:DISL:BSCA:1,2017-06-03T09:30:00Z,30.3288,-87.8293,0.0,4.88,160.4,-999.0,'1111122,1111122,1111122' 
DISL,ioos:station:DISL:BSCA:1,2017-06-03T10:00:00Z,30.3288,-87.8293,0.0,3.63,171.3,-999.0,'1111122,1111122,1111122' 
DISL,ioos:station:DISL:BSCA:1,2017-06-03T10:30:00Z,30.3288,-87.8293,0.0,4.22,179.7,-999.0,'1111122,1111122,1111122' 
DISL,ioos:station:DISL:BSCA:1,2017-06-03T11:00:00Z,30.3288,-87.8293,0.0,4.2,170.5,-999.0,'1111122,1111122,1111122' 
DISL,ioos:station:DISL:BSCA:1,2017-06-03T11:30:00Z,30.3288,-87.8293,0.0,5.08,166.2,-999.0,'1111122,1111122,1111122' 
DISL,ioos:station:DISL:BSCA:1,2017-06-03T12:00:00Z,30.3288,-87.8293,0.0,5.87,173.8,-999.0,'1111122,1111122,1111122' 
DISL,ioos:station:DISL:BSCA:1,2017-06-03T12:30:00Z,30.3288,-87.8293,0.0,5.84,191.0,-999.0,'1111122,1111122,1111122' 
DISL,ioos:station:DISL:BSCA:1,2017-06-03T13:00:00Z,30.3288,-87.8293,0.0,4.48,185.4,-999.0,'1111122,1111122,1111122' 
DISL,ioos:station:DISL:BSCA:1,2017-06-03T13:30:00Z,30.3288,-87.8293,0.0,5.71,186.1,-999.0,'1111122,1111122,1111122' 
DISL,ioos:station:DISL:BSCA:1,2017-06-03T14:00:00Z,30.3288,-87.8293,0.0,5.07,184.0,-999.0,'1111122,1111122,1111122' 
DISL,ioos:station:DISL:BSCA:1,2017-06-03T14:30:00Z,30.3288,-87.8293,0.0,4.98,170.9,-999.0,'1111122,1111122,1111122' 
DISL,ioos:station:DISL:BSCA:1,2017-06-03T15:00:00Z,30.3288,-87.8293,0.0,5.58,157.1,-999.0,'1111122,1111122,1111122' 
DISL,ioos:station:DISL:BSCA:1,2017-06-03T15:30:00Z,30.3288,-87.8293,0.0,6.22,170.7,-999.0,'1111122,1111122,1111122' 
DISL,ioos:station:DISL:BSCA:1,2017-06-03T16:00:00Z,30.3288,-87.8293,0.0,5.79,177.2,-999.0,'1111122,1111122,1111122' 
DISL,ioos:station:DISL:BSCA:1,2017-06-03T16:30:00Z,30.3288,-87.8293,0.0,5.12,172.9,-999.0,'1111122,1111122,1111122' 
DISL,ioos:station:DISL:BSCA:1,2017-06-03T17:00:00Z,30.3288,-87.8293,0.0,5.6,161.6,-999.0,'1111122,1111122,1111122' 
DISL,ioos:station:DISL:BSCA:1,2017-06-03T17:30:00Z,30.3288,-87.8293,0.0,5.29,151.8,-999.0,'1111122,1111122,1111122' 
DISL,ioos:station:DISL:BSCA:1,2017-06-03T18:00:00Z,30.3288,-87.8293,0.0,4.17,148.6,-999.0,'1111122,1111122,1111122' 
DISL,ioos:station:DISL:BSCA:1,2017-06-03T18:30:00Z,30.3288,-87.8293,0.0,4.36,151.8,-999.0,'1111122,1111122,1111122' 
DISL,ioos:station:DISL:BSCA:1,2017-06-03T19:00:00Z,30.3288,-87.8293,0.0,3.31,148.6,-999.0,'1111122,1111122,1111122' 
DISL,ioos:station:DISL:BSCA:1,2017-06-03T19:30:00Z,30.3288,-87.8293,0.0,3.3,151.5,-999.0,'1111122,1111122,1111122' 
DISL,ioos:station:DISL:BSCA:1,2017-06-03T20:00:00Z,30.3288,-87.8293,0.0,3.39,155.2,-999.0,'1111122,1111122,1111122' 
DISL,ioos:station:DISL:BSCA:1,2017-06-03T20:30:00Z,30.3288,-87.8293,0.0,2.11,159.8,-999.0,'1111122,1111122,1111122' 
DISL,ioos:station:DISL:BSCA:1,2017-06-03T21:00:00Z,30.3288,-87.8293,0.0,4.04,168.3,-999.0,'1111122,1111122,1111122' 
DISL,ioos:station:DISL:BSCA:1,2017-06-03T21:30:00Z,30.3288,-87.8293,0.0,3.83,174.8,-999.0,'1111122,1111122,1111122' 
DISL,ioos:station:DISL:BSCA:1,2017-06-03T22:00:00Z,30.3288,-87.8293,0.0,3.17,163.4,-999.0,'1111122,1111122,1111122' 
DISL,ioos:station:DISL:BSCA:1,2017-06-03T22:30:00Z,30.3288,-87.8293,0.0,1.76,177.5,-999.0,'1111122,1111122,1111122' 
DISL,ioos:station:DISL:BSCA:1,2017-06-03T23:00:00Z,30.3288,-87.8293,0.0,1.44,180.9,-999.0,'1111122,1111122,1111122' 
DISL,ioos:station:DISL:BSCA:1,2017-06-03T23:30:00Z,30.3288,-87.8293,0.0,3.35,45.54,-999.0,'1111122,1111122,1111122' 
DISL,ioos:station:DISL:BSCA:1,2017-06-04T00:00:00Z,30.3288,-87.8293,0.0,2.58,51.05,-999.0,'1111122,1111122,1111122' 
DISL,ioos:station:DISL:BSCA:1,2017-06-04T00:30:00Z,30.3288,-87.8293,0.0,2.46,61.13,-999.0,'1111122,1111122,1111122' 
DISL,ioos:station:DISL:BSCA:1,2017-06-04T01:00:00Z,30.3288,-87.8293,0.0,3.28,50.63,-999.0,'1111122,1111122,1111122' 
DISL,ioos:station:DISL:BSCA:1,2017-06-04T01:30:00Z,30.3288,-87.8293,0.0,4.37,68.75,-999.0,'1111122,1111122,1111122' 
DISL,ioos:station:DISL:BSCA:1,2017-06-04T02:00:00Z,30.3288,-87.8293,0.0,1.98,173.3,-999.0,'1111122,1111122,1111122' 
DISL,ioos:station:DISL:BSCA:1,2017-06-04T02:30:00Z,30.3288,-87.8293,0.0,2.25,184.9,-999.0,'1111122,1111122,1111122' 
DISL,ioos:station:DISL:BSCA:1,2017-06-04T03:00:00Z,30.3288,-87.8293,0.0,2.0,152.4,-999.0,'1111122,1111122,1111122' 
DISL,ioos:station:DISL:BSCA:1,2017-06-04T03:30:00Z,30.3288,-87.8293,0.0,4.65,169.2,-999.0,'1111122,1111122,1111122' 
DISL,ioos:station:DISL:BSCA:1,2017-06-04T04:00:00Z,30.3288,-87.8293,0.0,5.42,152.2,-999.0,'1111122,1111122,1111122' 
DISL,ioos:station:DISL:BSCA:1,2017-06-04T04:30:00Z,30.3288,-87.8293,0.0,5.67,147.9,-999.0,'1111122,1111122,1111122' 
DISL,ioos:station:DISL:BSCA:1,2017-06-04T05:00:00Z,30.3288,-87.8293,0.0,6.12,157.3,-999.0,'1111122,1111122,1111122' 
DISL,ioos:station:DISL:BSCA:1,2017-06-04T05:30:00Z,30.3288,-87.8293,0.0,5.74,159.9,-999.0,'1111122,1111122,1111122' 
DISL,ioos:station:DISL:BSCA:1,2017-06-04T06:00:00Z,30.3288,-87.8293,0.0,4.49,179.4,-999.0,'1111122,1111122,1111122' 
DISL,ioos:station:DISL:BSCA:1,2017-06-04T06:30:00Z,30.3288,-87.8293,0.0,4.33,173.7,-999.0,'1111122,1111122,1111122' 
DISL,ioos:station:DISL:BSCA:1,2017-06-04T07:00:00Z,30.3288,-87.8293,0.0,3.51,166.8,-999.0,'1111122,1111122,1111122' 
DISL,ioos:station:DISL:BSCA:1,2017-06-04T07:30:00Z,30.3288,-87.8293,0.0,3.62,143.1,-999.0,'1111122,1111122,1111122' 
DISL,ioos:station:DISL:BSCA:1,2017-06-04T08:00:00Z,30.3288,-87.8293,0.0,2.68,86.1,-999.0,'1111122,1111122,1111122' 
DISL,ioos:station:DISL:BSCA:1,2017-06-04T08:30:00Z,30.3288,-87.8293,0.0,2.66,85.4,-999.0,'1111122,1111122,1111122' 
DISL,ioos:station:DISL:BSCA:1,2017-06-04T09:00:00Z,30.3288,-87.8293,0.0,2.93,67.79,-999.0,'1111122,1111122,1111122' 
DISL,ioos:station:DISL:BSCA:1,2017-06-04T09:30:00Z,30.3288,-87.8293,0.0,3.77,52.51,-999.0,'1111122,1111122,1111122' 
DISL,ioos:station:DISL:BSCA:1,2017-06-04T10:00:00Z,30.3288,-87.8293,0.0,3.17,68.3,-999.0,'1111122,1111122,1111122' 
DISL,ioos:station:DISL:BSCA:1,2017-06-04T10:30:00Z,30.3288,-87.8293,0.0,3.25,71.62,-999.0,'1111122,1111122,1111122' 
DISL,ioos:station:DISL:BSCA:1,2017-06-04T11:00:00Z,30.3288,-87.8293,0.0,3.96,80.1,-999.0,'1111122,1111122,1111122' 
DISL,ioos:station:DISL:BSCA:1,2017-06-04T11:30:00Z,30.3288,-87.8293,0.0,3.36,84.7,-999.0,'1111122,1111122,1111122' 
DISL,ioos:station:DISL:BSCA:1,2017-06-04T12:00:00Z,30.3288,-87.8293,0.0,3.67,76.96,-999.0,'1111122,1111122,1111122' 
DISL,ioos:station:DISL:BSCA:1,2017-06-04T12:30:00Z,30.3288,-87.8293,0.0,3.59,91.1,-999.0,'1111122,1111122,1111122' 
DISL,ioos:station:DISL:BSCA:1,2017-06-04T13:00:00Z,30.3288,-87.8293,0.0,4.01,94.4,-999.0,'1111122,1111122,1111122' 
DISL,ioos:station:DISL:BSCA:1,2017-06-04T13:30:00Z,30.3288,-87.8293,0.0,3.92,92.3,-999.0,'1111122,1111122,1111122' 
DISL,ioos:station:DISL:BSCA:1,2017-06-04T14:00:00Z,30.3288,-87.8293,0.0,3.12,116.8,-999.0,'1111122,1111122,1111122' 
DISL,ioos:station:DISL:BSCA:1,2017-06-04T14:30:00Z,30.3288,-87.8293,0.0,3.12,139.6,-999.0,'1111122,1111122,1111122' 
DISL,ioos:station:DISL:BSCA:1,2017-06-04T15:00:00Z,30.3288,-87.8293,0.0,3.57,142.9,-999.0,'1111122,1111122,1111122' 
DISL,ioos:station:DISL:BSCA:1,2017-06-04T15:30:00Z,30.3288,-87.8293,0.0,4.2,142.1,-999.0,'1111122,1111122,1111122' 
DISL,ioos:station:DISL:BSCA:1,2017-06-04T16:00:00Z,30.3288,-87.8293,0.0,5.75,151.1,-999.0,'1111122,1111122,1111122' 
DISL,ioos:station:DISL:BSCA:1,2017-06-04T16:30:00Z,30.3288,-87.8293,0.0,5.54,158.0,-999.0,'1111122,1111122,1111122' 
DISL,ioos:station:DISL:BSCA:1,2017-06-04T17:00:00Z,30.3288,-87.8293,0.0,5.86,151.8,-999.0,'1111122,1111122,1111122' 
DISL,ioos:station:DISL:BSCA:1,2017-06-04T17:30:00Z,30.3288,-87.8293,0.0,6.63,153.1,-999.0,'1111122,1111122,1111122' 
DISL,ioos:station:DISL:BSCA:1,2017-06-04T18:00:00Z,30.3288,-87.8293,0.0,6.6,160.0,-999.0,'1111122,1111122,1111122' 
DISL,ioos:station:DISL:BSCA:1,2017-06-04T18:30:00Z,30.3288,-87.8293,0.0,6.69,157.0,-999.0,'1111122,1111122,1111122' 
DISL,ioos:station:DISL:BSCA:1,2017-06-04T19:00:00Z,30.3288,-87.8293,0.0,6.42,157.9,-999.0,'1111122,1111122,1111122' 
DISL,ioos:station:DISL:BSCA:1,2017-06-04T19:30:00Z,30.3288,-87.8293,0.0,6.33,166.9,-999.0,'1111122,1111122,1111122' 
DISL,ioos:station:DISL:BSCA:1,2017-06-04T20:00:00Z,30.3288,-87.8293,0.0,5.71,173.6,-999.0,'1111122,1111122,1111122' 
DISL,ioos:station:DISL:BSCA:1,2017-06-04T20:30:00Z,30.3288,-87.8293,0.0,5.59,178.6,-999.0,'1111122,1111122,1111122' 
DISL,ioos:station:DISL:BSCA:1,2017-06-04T21:00:00Z,30.3288,-87.8293,0.0,4.92,172.3,-999.0,'1111122,1111122,1111122' 
DISL,ioos:station:DISL:BSCA:1,2017-06-04T21:30:00Z,30.3288,-87.8293,0.0,4.02,186.4,-999.0,'1111122,1111122,1111122' 
DISL,ioos:station:DISL:BSCA:1,2017-06-04T22:00:00Z,30.3288,-87.8293,0.0,4.95,185.8,-999.0,'1111122,1111122,1111122' 
DISL,ioos:station:DISL:BSCA:1,2017-06-04T22:30:00Z,30.3288,-87.8293,0.0,3.89,202.7,-999.0,'1111122,1111122,1111122' 
DISL,ioos:station:DISL:BSCA:1,2017-06-04T23:00:00Z,30.3288,-87.8293,0.0,3.84,177.3,-999.0,'1111122,1111122,1111122' 
DISL,ioos:station:DISL:BSCA:1,2017-06-04T23:30:00Z,30.3288,-87.8293,0.0,5.13,177.9,-999.0,'1111122,1111122,1111122' 
DISL,ioos:station:DISL:BSCA:1,2017-06-05T00:00:00Z,30.3288,-87.8293,0.0,4.64,187.7,-999.0,'1111122,1111122,1111122' 
DISL,ioos:station:DISL:BSCA:1,2017-06-05T00:30:00Z,30.3288,-87.8293,0.0,4.43,188.3,-999.0,'1111122,1111122,1111122' 
DISL,ioos:station:DISL:BSCA:1,2017-06-05T01:00:00Z,30.3288,-87.8293,0.0,4.43,200.7,-999.0,'1111122,1111122,1111122' 
DISL,ioos:station:DISL:BSCA:1,2017-06-05T01:30:00Z,30.3288,-87.8293,0.0,4.78,204.4,-999.0,'1111122,1111122,1111122' 
DISL,ioos:station:DISL:BSCA:1,2017-06-05T02:00:00Z,30.3288,-87.8293,0.0,4.08,183.9,-999.0,'1111122,1111122,1111122' 
DISL,ioos:station:DISL:BSCA:1,2017-06-05T02:30:00Z,30.3288,-87.8293,0.0,4.16,179.4,-999.0,'1111122,1111122,1111122' 
DISL,ioos:station:DISL:BSCA:1,2017-06-05T03:00:00Z,30.3288,-87.8293,0.0,4.84,189.6,-999.0,'1111122,1111122,1111122' 
DISL,ioos:station:DISL:BSCA:1,2017-06-05T03:30:00Z,30.3288,-87.8293,0.0,4.68,196.0,-999.0,'1111122,1111122,1111122' 
DISL,ioos:station:DISL:BSCA:1,2017-06-05T04:00:00Z,30.3288,-87.8293,0.0,3.74,198.0,-999.0,'1111122,1111122,1111122' 
DISL,ioos:station:DISL:BSCA:1,2017-06-05T04:30:00Z,30.3288,-87.8293,0.0,4.08,194.6,-999.0,'1111122,1111122,1111122' 
DISL,ioos:station:DISL:BSCA:1,2017-06-05T05:00:00Z,30.3288,-87.8293,0.0,4.28,195.4,-999.0,'1111122,1111122,1111122' 
DISL,ioos:station:DISL:BSCA:1,2017-06-05T05:30:00Z,30.3288,-87.8293,0.0,5.08,184.2,-999.0,'1111122,1111122,1111122' 